STARLINK-3360, 51149

Orbit data source: Space-Track

STARLINK-3360, 51149 is a payload satellite owned by SpaceX/Seattle (US) in LEO that was launched on Wed, 19 Jan 2022 UTC via an FALCON 9 launch vehicle from the Air Force Eastern Test Range (AFETR). Payload-class satellites include a variety of spacecraft equipped with specific instruments for various scientific and technological missions. These include communications satellites like Starlink; space stations such as the ISS; scientific satellites like the Hubble; Earth observation satellites from companies like Planet Labs, Umbra, and HawkEye 360; GPS; miniature CubeSats for education and research; and military/defense satellites.

Loading next visibility...
Identifier
51149, 2022-005AX
Orbit
LEO
Country
Flag of USUS
Related business
Manufacturer
SpaceX/Seattle
Mission
Operational Commercial Communications
Bus & Motor
STARLINK, Unknown motor
Mass
297 kg wet, ~275 kg dry
Launch date (UTC)
2022-01-19 (4 years ago)
Launch vehicle
FALCON 9
Launch site
Air Force Eastern Test Range (AFETR)
Object type
Payload
Rocket body
Debris
Shape & HBR
Box + 1 Pan, 10.1 m
Radar Cross Section
13.562 m², Large (>1 m²)

Expand to show TLE details & history
Last TLE update: 13 hours ago

TLE from 13 hours ago
0 STARLINK-3360
1 51149U 22005AX  26094.29256736  .00000053  00000-0  21412-4 0  9992
2 51149  53.2158 193.9986 0001432 108.8284 251.2863 15.08829324232468
Epoch: 2026-04-04T07:01Z
TLE epoch observation values (Epoch: 2026-04-04T07:01:17.819Z)
Latitude
-0.00009°
Longitude
-103.94014°
Altitude
540.991 km
Speed
7.593 km/s
True Right ascension
12h 55m 59s
True Declination
0° 00' 00"
Sunlit
Object was in full shadow at epoch
Visualization orbit readout
Latitude
Unknown
Longitude
Unknown
Altitude
Unknown
Speed
Unknown
Apparent Right ascension
Unknown
Apparent Declination
Unknown
Sunlit
N/A
Visualization observer readout
Local Sidereal Time
01:55:55
Azimuth
Unknown
Elevation
Unknown
Doppler factor
Unknown
Orbital elements
Apogee altitude
541.012 km
Perigee altitude
539.031 km
Semi-major axis
6,918.158 km
Eccentricity
0.00014
Inclination
53.2158°
RAAN
193.9986°
Arg. of periapsis
108.8284°
True anomaly
251.27076°
Mean anomaly
251.2863°
Eccentric anomaly
251.27853°
Mean motion
3.77188 °/min
Orbital period
95.44 mins
BSTAR
0.000021412
Loading maneuver chart data...
Computing Atmospheric mass density...
Loading historical data...
Loading historical data...
Loading historical data...
Loading historical data...
Loading historical data...
Loading historical data...
Loading historical data...

Documentation

Showing up to 5 results
|